Theta_e
312 312 316 317 321 319 324 324 321 320 319 322 324 327 330 327 334 337 330 333 336 338 337 336 335 337 339 338 337 336 336 335 335 334 333 332 331 329 328 326 324 323 322 321 320 318 315 311 307
308 314 316 313 321 325 323 320 320 319 323 320 316 319 324 328 324 329 330 334 336 338 337 336 336 337 337 337 336 334 333 332 331 329 328 328 327 325 323 321 319 319 318 317 317 315 312 312 312
310 314 312 315 317 323 323 316 318 315 322 316 318 316 322 327 325 326 329 333 337 338 338 337 337 337 336 335 333 332 332 331 329 327 326 323 322 320 319 317 316 316 316 315 314 314 313 311 311
311 311 308 315 318 318 317 314 315 315 313 315 317 322 318 321 323 326 330 333 336 336 336 336 336 335 334 333 332 330 328 327 325 323 321 318 315 316 315 313 313 313 313 313 313 313 312 311 308
309 306 313 315 316 314 313 310 313 314 314 313 313 316 320 322 322 327 330 331 334 333 333 332 332 331 331 329 328 327 325 323 321 319 316 308 308 311 310 310 310 311 312 312 311 310 308 307 306
307 304 312 314 312 310 308 306 309 311 312 311 314 316 318 321 323 326 328 329 330 330 330 329 329 328 327 326 324 323 321 317 314 309 303 301 301 303 305 307 308 311 311 310 309 305 304 303 302
307 306 308 309 309 310 309 304 310 310 312 311 311 316 316 321 323 324 326 327 327 327 327 326 326 326 324 322 320 318 314 312 308 303 300 298 298 298 298 302 307 308 308 307 306 303 300 297 297
305 304 308 307 307 310 305 307 307 310 311 306 308 315 317 319 323 324 325 325 324 324 323 323 321 320 319 317 315 310 305 302 300 298 298 298 298 298 298 298 298 299 300 301 302 297 296 296 296
302 305 306 307 306 307 303 307 304 304 308 310 314 312 313 320 322 323 322 322 322 321 321 321 318 315 313 311 304 300 299 299 299 298 298 299 298 298 298 297 297 296 296 295 295 295 295 295 296
303 304 307 305 303 305 303 305 302 306 307 310 315 315 317 321 321 320 319 319 319 319 319 316 314 310 306 301 299 299 299 299 299 299 299 299 298 298 298 297 297 296 295 295 295 295 295 295 295
305 305 305 304 305 303 303 305 300 305 307 306 311 316 316 318 318 318 318 318 318 317 316 314 311 306 301 299 299 299 299 299 299 299 299 299 298 298 298 297 297 296 296 295 294 295 295 295 296
306 304 304 304 302 302 303 300 302 302 304 301 302 314 314 316 316 316 316 316 316 316 315 312 307 304 299 300 300 300 299 299 299 299 299 298 298 298 298 297 296 296 296 295 294 294 295 295 296
305 304 303 302 301 302 302 301 302 301 301 310 313 314 313 314 315 316 316 316 315 314 313 310 307 304 300 300 300 300 299 299 298 298 298 298 298 298 297 297 296 296 295 294 294 294 295 296 296
303 303 303 302 302 303 303 302 302 301 302 312 314 314 312 312 313 313 313 314 314 314 312 310 309 306 302 301 301 301 300 299 298 298 298 298 298 297 297 296 296 296 296 294 293 294 295 295 295
302 304 303 302 302 304 302 304 302 297 301 311 314 313 313 312 313 313 312 312 312 311 311 310 309 307 303 301 301 301 300 299 299 298 298 298 298 297 296 296 296 296 295 293 293 294 295 295 295
302 300 301 303 301 303 303 302 302 297 299 300 302 301 302 300 300 300 302 305 311 312 311 309 307 305 303 302 301 301 300 299 298 299 298 298 298 297 296 296 296 295 295 293 292 294 295 295 295
305 303 306 304 301 301 305 305 303 297 299 298 299 299 299 300 300 301 301 301 302 309 313 311 307 305 303 302 301 300 300 299 298 299 299 298 298 297 297 296 296 295 295 293 292 293 294 294 295
307 308 307 307 303 300 303 303 302 299 299 298 298 299 299 300 299 300 302 302 302 303 310 311 307 303 302 302 301 300 299 299 298 299 299 299 298 298 297 296 296 295 295 293 292 292 293 294 294
305 307 308 306 301 301 301 299 300 298 298 297 296 298 298 299 298 300 301 302 302 303 307 308 306 303 302 301 300 300 299 299 299 299 299 299 299 298 297 297 296 295 295 294 292 292 293 293 293
306 307 306 303 301 301 299 299 298 297 297 297 297 297 298 298 297 299 300 301 301 302 304 304 304 303 302 301 300 300 299 300 300 300 300 300 299 298 297 297 296 296 295 294 293 292 292 292 293
301 304 303 303 299 298 295 300 299 298 297 297 297 297 297 298 298 297 298 299 299 301 302 302 302 302 302 301 300 300 300 300 300 300 299 298 298 298 297 297 296 296 295 294 293 292 291 292 292
307 298 300 299 295 298 294 299 296 297 296 297 296 295 296 297 297 296 296 297 297 299 300 301 301 301 301 300 300 300 299 299 299 299 298 298 297 296 296 296 296 296 296 295 294 293 291 291 291
302 298 299 298 291 291 292 289 293 295 296 295 294 293 293 294 296 294 294 295 296 298 299 300 300 300 300 300 300 300 299 299 298 298 298 297 295 295 295 295 295 295 295 295 295 294 292 291 291
297 297 294 293 287 289 285 289 294 294 296 296 294 292 292 292 293 293 294 294 295 296 298 298 299 299 299 299 299 299 298 298 297 296 295 295 294 294 294 294 294 294 294 294 295 295 294 293 291
295 290 290 292 290 294 277 292 299 297 295 294 294 293 291 291 291 291 292 292 293 294 295 296 296 296 296 296 296 295 295 294 294 293 292 292 291 291 290 290 291 292 292 293 293 294 294 294 293
297 289 291 287 291 292 279 292 296 295 293 291 291 291 291 291 291 290 291 291 291 291 291 292 292 292 292 292 292 291 291 290 290 290 289 289 288 288 288 288 288 288 289 289 291 292 293 293 293
294 289 290 283 273 285 289 290 292 294 291 292 292 292 291 291 290 290 291 290 290 289 289 289 289 289 289 289 289 289 289 288 288 288 288 288 288 288 288 288 288 288 287 287 287 288 290 291 292
292 291 291 286 288 285 288 280 295 290 288 287 292 291 290 290 290 289 290 290 289 288 288 288 288 288 288 288 288 287 287 287 287 287 287 287 287 287 287 287 287 287 287 287 287 287 287 287 289
290 289 288 288 290 288 288 293 287 286 281 284 285 289 286 286 288 288 289 290 290 290 289 288 288 287 287 287 287 287 286 286 286 286 286 286 286 286 286 286 286 286 286 286 286 286 286 286 286
293 291 293 292 287 287 290 293 285 280 275 274 284 284 285 284 287 286 289 289 290 290 290 289 287 287 286 286 286 286 286 286 286 286 286 285 285 285 285 285 285 285 285 286 285 285 285 285 285
Wind_Speed
12 12 10 4 3 4 2 4 1 1 1 2 2 3 5 4 2 2 1 2 5 7 9 9 9 15 19 18 16 14 11 8 9 11 11 11 10 12 14 13 14 13 14 14 14 14 14 13 10
9 6 4 2 4 2 4 3 1 2 4 5 4 2 5 3 1 1 2 5 8 11 12 13 13 17 17 17 15 12 10 8 7 9 10 13 15 14 14 14 13 13 14 14 14 14 14 15 14
4 5 3 4 2 4 3 3 2 2 5 2 4 5 2 1 0 3 3 5 15 17 17 16 16 16 15 14 11 11 10 8 13 14 13 14 14 14 14 15 14 14 15 14 14 14 14 14 15
3 5 4 4 4 4 3 3 2 2 2 5 3 6 2 2 1 2 7 9 19 22 19 17 17 15 14 14 14 14 15 16 15 14 13 12 11 12 12 13 13 14 14 14 15 15 15 14 13
4 3 3 1 3 3 3 2 4 1 2 3 3 4 2 3 2 7 9 15 15 20 19 17 19 17 15 13 14 14 15 14 13 13 12 9 10 11 12 12 12 13 13 14 13 14 14 13 13
4 3 3 3 3 4 4 1 1 2 1 1 4 3 1 2 6 8 11 14 17 17 18 15 13 13 13 12 13 14 13 11 10 8 8 7 8 9 11 11 12 13 12 13 13 12 12 12 12
5 3 3 2 2 2 0 6 2 3 2 3 5 4 1 3 7 9 11 13 13 13 12 11 10 10 11 12 11 11 11 9 7 5 6 6 6 6 6 9 12 12 12 12 12 12 11 11 11
4 4 2 2 2 2 4 3 1 3 2 2 1 2 2 7 13 12 11 10 9 9 8 8 7 8 9 9 9 8 7 7 7 7 6 6 6 7 7 8 9 9 11 12 12 12 12 11 11
3 4 1 2 4 2 5 2 3 2 4 3 3 1 5 17 17 14 12 9 8 7 6 6 5 6 8 9 8 6 5 5 6 7 7 7 7 7 8 9 10 10 11 11 11 12 12 11 11
4 3 3 1 0 2 5 3 4 4 3 2 2 4 9 21 18 15 13 11 10 8 6 6 6 7 7 7 8 7 6 5 5 5 6 6 7 8 8 9 10 11 12 11 11 12 12 11 11
1 2 1 1 2 2 5 3 5 2 2 1 3 4 7 14 14 15 14 13 12 9 8 7 6 7 6 6 6 5 4 4 4 4 5 5 6 6 7 8 8 10 11 11 11 11 11 12 12
3 2 1 2 4 3 4 6 5 1 2 4 7 11 8 9 12 15 16 14 12 11 9 9 8 7 6 5 4 4 3 3 2 3 3 4 5 6 7 8 10 11 11 12 12 11 12 12 12
2 1 3 3 6 3 4 3 3 4 3 4 8 9 7 8 11 14 14 13 11 12 11 10 9 8 7 6 5 4 3 2 1 1 2 4 5 6 7 8 9 11 12 12 12 12 13 12 12
1 2 1 4 4 2 3 2 3 2 3 5 6 6 5 7 8 9 10 12 14 13 13 11 11 10 9 8 6 5 4 3 2 0 2 4 5 6 7 8 9 11 12 12 12 13 13 13 14
2 2 3 6 5 3 2 1 1 6 3 3 2 3 3 3 3 8 9 13 16 16 14 14 13 12 11 9 9 7 6 5 3 1 2 4 5 6 7 8 10 11 12 12 11 11 12 12 13
4 5 4 3 8 3 3 6 1 6 3 3 2 0 0 2 3 3 5 9 14 18 19 17 15 14 13 12 10 9 7 6 5 4 3 4 5 6 7 9 11 12 12 12 12 14 13 14 15
6 0 1 4 4 4 2 5 3 5 2 5 1 2 3 2 2 6 7 8 9 17 21 21 20 17 15 13 12 10 9 7 7 5 4 5 6 7 8 10 11 12 12 12 13 14 16 16 17
3 2 3 3 5 6 3 8 5 3 3 6 4 3 2 1 2 8 10 10 10 11 17 20 22 18 15 13 12 11 10 9 8 7 6 6 6 7 8 10 11 12 11 11 12 14 14 13 19
1 1 3 2 3 4 4 6 10 6 4 6 7 6 4 3 4 8 11 11 10 9 12 17 21 19 17 15 13 12 12 10 9 8 7 6 6 7 9 10 11 12 12 12 13 14 14 11 18
5 1 3 4 4 2 5 12 11 7 6 6 7 6 5 3 5 7 11 11 10 8 9 13 19 19 16 14 12 8 5 7 8 7 5 6 6 7 9 10 11 12 12 11 11 11 11 8 12
3 3 4 3 7 2 8 7 5 4 3 3 2 2 1 2 5 6 10 11 11 9 4 9 14 15 13 11 9 7 6 5 3 2 3 4 5 7 9 10 11 12 13 12 11 11 9 8 7
1 3 2 3 5 3 5 5 7 5 7 3 5 4 4 3 2 3 7 9 12 12 4 4 10 11 10 9 8 6 5 4 3 4 4 4 6 7 9 11 12 13 13 12 11 10 10 9 9
1 4 3 3 3 4 6 3 8 5 6 7 9 8 7 6 3 1 4 5 7 8 6 6 8 8 7 7 6 5 5 5 5 6 6 7 8 9 10 11 12 13 13 14 13 12 12 12 12
2 1 5 3 3 3 3 4 6 4 5 5 5 9 9 7 5 2 1 0 2 5 8 8 8 8 7 5 3 2 3 3 4 6 8 9 11 11 11 12 12 13 13 14 14 15 15 14 15
5 6 4 5 4 5 2 2 11 6 7 5 9 8 7 6 6 5 4 2 2 4 6 7 7 8 5 4 2 1 1 2 3 5 7 9 10 11 11 12 12 13 14 14 15 16 17 18 19
4 5 4 5 2 5 2 6 6 4 5 7 8 7 6 6 5 5 5 4 4 4 5 6 6 7 5 4 3 2 2 3 4 6 8 9 11 13 14 15 15 16 16 15 15 16 18 20 21
2 2 3 6 1 3 3 8 10 2 6 5 6 4 6 6 5 6 7 7 6 5 6 6 6 5 4 3 2 1 2 4 5 7 9 11 12 14 15 15 16 16 17 18 18 18 19 19 21
4 2 3 3 2 5 5 6 6 5 6 6 6 7 7 6 7 7 10 11 9 6 3 2 2 3 2 1 1 2 4 6 7 9 10 12 13 14 16 17 18 18 18 18 18 19 19 20 21
2 2 3 3 3 4 3 6 7 7 4 6 8 8 8 8 8 7 13 13 11 9 7 4 4 3 3 3 4 5 6 7 9 10 11 13 14 15 16 18 20 20 21 20 20 20 21 21 21
3 5 5 4 6 3 1 8 1 6 5 4 9 9 7 9 10 9 15 14 12 12 10 9 8 7 5 6 6 7 8 10 11 12 13 14 15 16 16 17 19 20 22 22 23 24 23 23 24
Wind_Direction
326 330 336 20 47 64 276 267 290 126 78 334 48 94 119 67 96 190 7 90 144 146 156 155 159 141 127 122 116 112 97 85 87 86 92 95 92 77 70 66 59 51 52 51 42 38 35 33 35
334 342 14 70 93 65 273 277 205 190 145 144 76 39 51 90 78 90 35 103 145 146 141 138 145 133 123 119 117 110 102 87 98 101 97 86 76 70 67 62 61 53 48 47 44 41 38 35 33
350 17 72 87 111 178 216 266 217 77 141 30 90 49 74 82 263 122 105 117 132 141 138 137 135 125 124 117 115 108 104 103 107 94 85 79 74 70 64 60 53 52 46 44 43 41 39 39 35
346 25 40 100 203 256 206 358 313 101 69 57 126 71 54 353 356 133 128 137 122 123 125 126 126 118 118 119 113 109 104 103 102 98 91 83 73 68 64 61 56 49 47 41 40 39 39 35 34
46 53 82 107 253 273 253 283 160 139 84 44 346 153 90 12 129 138 135 126 146 126 126 115 112 116 114 112 111 107 103 102 101 94 89 77 71 65 60 57 56 50 46 45 42 36 35 32 28
42 90 73 229 232 264 285 338 233 85 74 110 82 104 107 141 137 150 142 133 131 124 126 128 126 124 122 115 114 111 104 104 102 96 82 69 65 63 58 53 51 49 44 43 36 34 30 27 25
106 79 199 167 229 282 33 323 48 103 84 30 131 113 338 201 162 162 148 138 131 127 129 126 130 131 132 132 125 120 114 107 109 97 88 80 67 58 52 54 50 41 39 38 31 25 23 20 16
104 90 103 258 209 242 356 21 18 57 112 128 24 172 223 190 171 165 150 141 138 134 127 121 121 124 136 141 134 122 118 120 103 95 86 77 62 51 42 36 37 30 30 28 24 17 14 13 12
113 67 210 215 158 295 353 44 12 285 105 47 30 28 314 159 166 160 148 147 146 149 147 141 140 144 148 145 132 129 117 112 99 92 80 67 55 47 38 35 34 31 24 20 18 14 15 14 10
76 101 230 259 349 334 336 39 330 14 27 4 27 44 127 154 169 167 171 169 176 175 172 166 163 164 159 152 142 135 121 109 99 86 69 58 49 40 35 28 24 18 14 12 11 8 9 7 8
107 151 214 353 10 347 329 2 328 34 322 280 235 164 142 152 171 177 185 190 193 190 195 193 190 186 179 165 154 146 132 118 103 81 59 54 38 29 21 14 9 8 4 4 6 5 6 6 4
77 28 15 18 10 12 2 317 346 43 250 296 263 157 153 170 182 188 194 196 195 198 204 203 203 202 194 189 186 163 156 131 108 81 70 44 23 15 8 6 7 4 4 2 2 3 4 4 4
71 29 39 23 31 359 339 328 290 289 3 31 123 142 159 178 198 208 211 209 209 211 213 211 212 213 216 215 205 201 200 169 144 90 47 26 8 1 3 5 3 1 360 357 359 358 358 358 3
40 68 49 26 26 8 17 302 6 12 10 80 130 160 172 189 203 212 217 222 223 227 225 219 219 218 221 224 224 223 220 218 209 149 10 5 1 356 358 358 358 355 353 351 354 353 353 356 357
77 32 2 22 344 13 341 290 277 325 35 112 168 202 221 228 236 246 251 250 243 238 233 228 224 225 227 226 229 228 225 222 229 262 321 346 350 349 352 353 351 351 349 348 349 349 350 351 357
41 41 19 349 2 9 60 277 300 340 261 200 226 269 60 63 59 10 314 282 257 249 241 235 228 226 225 227 229 231 230 234 239 257 296 325 337 339 347 345 345 348 347 345 347 349 353 355 356
16 339 320 320 62 330 55 277 292 350 292 219 183 106 112 84 10 356 337 315 292 250 244 234 228 225 222 223 226 231 233 235 241 254 275 302 319 327 334 339 342 342 342 342 347 352 352 351 354
311 358 308 277 342 359 301 269 283 314 274 227 214 202 187 286 327 342 338 325 298 276 246 238 225 217 218 223 226 227 232 236 244 255 274 293 306 314 327 335 335 334 336 338 341 346 352 353 352
279 295 298 318 29 339 267 281 273 270 255 233 225 225 229 281 328 349 351 340 317 279 245 235 216 212 215 215 218 229 238 244 254 264 272 286 303 313 324 328 331 331 331 335 338 343 348 355 359
38 357 307 287 23 353 354 283 257 237 236 210 218 231 258 307 341 353 1 1 353 317 247 228 213 210 215 220 226 233 246 249 259 264 276 284 296 304 313 319 323 327 325 325 328 336 343 343 2
44 11 352 288 329 70 330 289 305 267 244 226 219 217 286 321 338 345 355 1 3 358 283 224 210 210 212 217 227 234 251 267 280 288 270 293 304 307 308 312 315 318 321 319 319 322 328 333 336
6 349 317 341 32 274 16 281 298 329 297 274 244 247 256 274 331 352 351 360 6 7 11 199 196 197 200 208 219 235 261 278 289 297 299 307 319 324 323 318 313 310 311 311 309 306 305 302 305
244 33 38 65 83 37 351 61 274 359 311 265 233 229 230 234 226 357 356 357 14 28 58 125 157 165 179 195 215 236 256 275 291 303 305 308 313 317 320 318 317 314 308 304 301 296 291 288 284
4 43 37 57 94 16 231 113 285 254 221 274 250 215 213 209 201 191 235 339 63 73 87 109 131 132 144 159 174 216 248 274 287 298 309 316 320 322 322 316 315 313 310 305 297 290 286 284 280
53 47 339 353 7 222 348 35 243 258 244 250 285 247 214 205 203 213 205 196 98 102 106 113 115 108 112 117 115 91 353 313 319 323 328 329 331 332 334 330 327 322 315 308 299 291 283 279 277
36 125 149 238 265 277 353 242 249 224 325 287 285 267 192 215 229 234 214 191 157 128 118 120 120 118 120 115 99 53 358 341 331 326 324 323 321 320 321 317 316 315 314 312 306 296 288 283 278
275 36 144 98 100 35 274 294 298 318 303 301 289 264 235 241 242 237 219 206 188 172 158 149 144 137 138 139 137 141 318 316 323 323 323 321 319 318 316 316 315 314 313 309 304 300 294 290 286
140 155 30 9 334 308 292 278 239 327 312 313 288 250 256 261 251 244 232 215 204 197 189 193 191 182 182 210 294 321 318 313 315 314 315 316 317 318 316 315 314 313 312 311 310 305 299 294 289
20 339 41 119 141 184 281 256 214 220 232 300 292 268 258 260 253 239 234 230 225 227 233 246 244 244 261 289 304 311 313 315 316 319 320 319 319 320 320 319 316 316 314 312 308 306 305 303 299
221 217 166 121 270 226 174 271 91 242 235 232 290 284 260 239 246 240 236 230 230 234 241 251 253 254 261 280 293 303 312 314 312 313 313 314 315 316 317 317 317 316 313 312 309 309 308 305 301